TimeIST,TemperatureF,Dew PointF,Humidity,Sea Level PressureIn,VisibilityMPH,Wind Direction,Wind SpeedMPH,Gust SpeedMPH,PrecipitationIn,Events,Conditions,WindDirDegrees,DateUTC
12:00 AM,42.8,42.8,100,30.06,0.6,West,3.5,-,N/A,,Mist,270,2013-01-08 18:30:00
12:30 AM,42.8,42.8,100,30.06,0.6,SW,4.6,-,N/A,,Mist,230,2013-01-08 19:00:00
1:00 AM,42.8,42.8,100,30.06,0.6,West,4.6,-,N/A,,Mist,260,2013-01-08 19:30:00
2:00 AM,41.0,41.0,100,30.04,0.5,West,3.5,-,N/A,Fog,Shallow Fog,270,2013-01-08 20:30:00
2:30 AM,41.0,41.0,100,30.04,0.5,WNW,4.6,-,N/A,Fog,Shallow Fog,300,2013-01-08 21:00:00
3:00 AM,41.0,41.0,100,30.04,0.5,WNW,4.6,-,N/A,Fog,Shallow Fog,300,2013-01-08 21:30:00
3:30 AM,41.0,41.0,100,30.06,0.5,West,4.6,-,N/A,Fog,Shallow Fog,270,2013-01-08 22:00:00
4:00 AM,39.2,39.2,100,30.06,0.6,West,4.6,-,N/A,Fog,Shallow Fog,260,2013-01-08 22:30:00
4:30 AM,39.2,39.2,100,30.04,0.6,West,5.8,-,N/A,Fog,Shallow Fog,270,2013-01-08 23:00:00
5:00 AM,37.4,37.4,100,30.04,0.6,SW,4.6,-,N/A,Fog,Shallow Fog,230,2013-01-08 23:30:00
6:00 AM,35.6,35.6,100,30.04,0.2,SW,4.6,-,N/A,Fog,Fog,230,2013-01-09 00:30:00
6:30 AM,35.6,35.6,100,30.04,0.2,West,4.6,-,N/A,Fog,Fog,260,2013-01-09 01:00:00
7:00 AM,35.6,35.6,100,30.06,0.2,SW,4.6,-,N/A,Fog,Fog,230,2013-01-09 01:30:00
7:30 AM,35.6,35.6,100,30.06,0.2,SW,5.8,-,N/A,Fog,Fog,230,2013-01-09 02:00:00
8:00 AM,39.2,39.2,100,30.09,0.3,WSW,6.9,-,N/A,Fog,Fog,240,2013-01-09 02:30:00
8:30 AM,39.2,39.2,100,30.09,0.4,SW,5.8,-,N/A,Fog,Shallow Fog,230,2013-01-09 03:00:00
9:00 AM,42.8,42.8,100,30.09,0.4,WSW,6.9,-,N/A,Fog,Shallow Fog,250,2013-01-09 03:30:00
10:00 AM,46.4,46.4,100,30.09,0.8,West,6.9,-,N/A,,Mist,270,2013-01-09 04:30:00
10:30 AM,50.0,50.0,100,30.09,0.8,West,8.1,-,N/A,,Mist,270,2013-01-09 05:00:00
12:00 PM,59.0,48.2,67,30.06,1.2,WNW,8.1,-,N/A,,Smoke,290,2013-01-09 06:30:00
12:30 PM,62.6,46.4,55,30.04,1.6,West,8.1,-,N/A,,Smoke,270,2013-01-09 07:00:00
1:00 PM,64.4,44.6,49,30.04,1.6,West,9.2,-,N/A,,Smoke,280,2013-01-09 07:30:00
2:30 PM,68.0,32.0,26,30.04,2.2,WNW,13.8,-,N/A,,Haze,290,2013-01-09 09:00:00
3:00 PM,68.0,33.8,28,30.01,2.5,WNW,12.7,-,N/A,,Haze,300,2013-01-09 09:30:00
3:30 PM,68.0,32.0,26,30.01,2.8,WNW,12.7,-,N/A,,Haze,300,2013-01-09 10:00:00
4:30 PM,66.2,33.8,30,29.98,3.1,WNW,11.5,-,N/A,,Haze,290,2013-01-09 11:00:00
5:00 PM,64.4,35.6,34,29.98,3.7,West,10.4,-,N/A,,Unknown,280,2013-01-09 11:30:00
5:30 PM,60.8,37.4,42,30.01,3.7,West,6.9,-,N/A,,Unknown,280,2013-01-09 12:00:00
6:30 PM,59.0,37.4,45,30.01,2.5,West,5.8,-,N/A,,Haze,280,2013-01-09 13:00:00
7:00 PM,57.2,37.4,48,30.01,2.2,West,5.8,-,N/A,,Haze,280,2013-01-09 13:30:00
7:30 PM,57.2,37.4,48,30.01,-9999.0,West,5.8,-,N/A,,Haze,270,2013-01-09 14:00:00
8:30 PM,53.6,37.4,54,30.01,1.4,West,4.6,-,N/A,,Haze,260,2013-01-09 15:00:00
9:00 PM,51.8,39.2,62,30.01,1.1,West,4.6,-,N/A,,Haze,260,2013-01-09 15:30:00
9:30 PM,50.0,39.2,66,30.01,1.1,West,5.8,-,N/A,,Smoke,270,2013-01-09 16:00:00
10:00 PM,50.0,41.0,71,30.04,1.1,West,5.8,-,N/A,,Smoke,260,2013-01-09 16:30:00
10:30 PM,50.0,41.0,71,30.04,1.1,West,5.8,-,N/A,,Smoke,270,2013-01-09 17:00:00
11:00 PM,50.0,41.0,71,30.01,1.0,West,5.8,-,N/A,,Smoke,270,2013-01-09 17:30:00
11:30 PM,50.0,41.0,71,30.01,1.0,West,5.8,-,N/A,,Smoke,270,2013-01-09 18:00:00